Home   Weather   Laredo   Past weeks

Flag for USA Past Weather in Laredo, Texas, USA — Yesterday and Last 2 Weeks

Now
84 °F

Sunny.


Feels Like: 81 °F
Forecast: 62 / 82 °F
Wind: 10 mph from Northwest

Location: Laredo International Airport

Current Time: Apr 30, 2017 at 5:34:20 pm

Latest Report: Apr 30, 2017 at 4:56 pm


Visibility: 10 mi

Pressure: 29.89 "Hg

Humidity: 15%

Dew Point: 32 °F

Location of LaredoLocation

Past Weather in Laredo — Graph

°F

Laredo Temperature Yesterday

Maximum temperature yesterday: 102 °F (at 4:56 pm)
Minimum temperature yesterday: 73 °F (at 10:56 pm)
Average temperature yesterday: 83 °F

High & Low Weather Summary for the Past Weeks

 TemperatureHumidityPressure
High102 °F (Apr 29, 4:56 pm)100% (Apr 18, 6:56 am)30.26 "Hg (Apr 18, 6:56 am)
Low60 °F (Apr 23, 1:56 am)17% (Apr 26, 4:56 pm)29.42 "Hg (Apr 25, 6:56 pm)
Average77 °F63%29.82 "Hg
* Reported Apr 15 3:56 pm — Apr 30 3:56 pm, Laredo, Weather by CustomWeather, © 2017

Note: Actual official high and low records may vary slightly from our data, if they occured in-between our weather recording intervals... More about our weather records

Advertising

Laredo Weather History for the Previous 24 Hours

Scroll right to see more
 ConditionsComfort  
Time TempWeatherWind HumidityBarometerVisibility
3:56 pm
Sun, Apr 30
82 °FSunny.5 mph18%29.92 "Hg10 mi
2:56 pm80 °FSunny.5 mph20%29.96 "Hg10 mi
1:56 pm79 °FSunny.9 mph23%29.98 "Hg10 mi
12:56 pm76 °FSunny.8 mph24%30.01 "Hg10 mi
11:56 am73 °FSunny.12 mph26%30.04 "Hg10 mi
10:56 am70 °FSunny.20 mph29%30.05 "Hg10 mi
9:56 am66 °FSunny.18 mph33%30.04 "Hg10 mi
8:56 am64 °FSunny.21 mph37%30.04 "Hg10 mi
7:56 am62 °FPassing clouds.15 mph41%30.01 "Hg10 mi
6:56 am63 °FClear.16 mph38%29.97 "Hg10 mi
5:56 am67 °FPassing clouds.23 mph32%29.93 "Hg10 mi
4:56 am69 °FOvercast.16 mph30%29.91 "Hg10 mi
3:56 am71 °FOvercast.12 mph26%29.91 "Hg10 mi
2:56 am71 °FOvercast.12 mph27%29.88 "Hg10 mi
1:56 am72 °FOvercast.14 mph25%29.87 "Hg10 mi
12:56 am72 °FMostly cloudy.20 mph25%29.85 "Hg10 mi
11:56 pm
Sat, Apr 29
73 °FOvercast.21 mph26%29.84 "Hg10 mi
10:56 pm73 °FClear.28 mph32%29.79 "Hg10 mi
9:56 pm76 °FClear.37 mph36%29.67 "Hg9 mi
8:56 pm83 °FClear.30 mph36%29.59 "Hg10 mi
7:56 pm92 °FSunny.23 mph44%29.49 "Hg9 mi
5:56 pm100 °FSunny.8 mph25%29.43 "Hg10 mi
Weather by CustomWeather, © 2017

See weather overviewHow to use our weather pages